Tracking 19246 objects as of 20-Aug-2018
HD Live streaming from Space Station
objects crossing your sky now

FENGYUN 1C DEB

Track FENGYUN 1C DEB now!
10-day predictions


NORAD ID: 31292
Int'l Code: 1999-025BPA
Perigee: 788.6 km
Apogee: 869.4 km
Inclination: 99.1 °
Period: 101.3 minutes
Semi major axis: 7200 km
RCS: 0.0053 m2 (small)
Launch date: May 10, 1999
Source: People's Republic of China (PRC)
Launch site: Taiyaun Space Center, China (TSC)

Note: This is SATELLITE DEBRIS
aabbcc
Your satellite tracking list
Your tracking list is empty




NASA's NSSDC Master Catalog

Two Line Element Set (TLE):
1 31292U 99025BPA 18231.36660653 +.00001323 +00000-0 +62154-3 0  9992
2 31292 099.0802 286.1547 0056093 188.8551 171.1640 14.21027868583789
Source of the keplerian elements: AFSPC